Pittsburgh Allegheny Co., PA

11:37 PM EDT on May 28, 2017 (GMT -0400)
Allegheny County

Weather History for KAGC - November, 2011

Change the Weather History Date:

Sunday, November 6, 2011

  Actual Average Record
Temperature  
Mean Temperature 46 °F -  
Max Temperature 59 °F 54 °F 73 °F (2005)
Min Temperature 35 °F 30 °F 14 °F (1991)
Degree Days  
Heating Degree Days 19    
Moisture  
Dew Point 22 °F    
Average Humidity 38    
Maximum Humidity 64    
Minimum Humidity 28    
Precipitation  
Precipitation 0.00 in - - ()
Sea Level Pressure  
Sea Level Pressure 30.35 in    
Wind  
Wind Speed 7 mph (SSE)    
Max Wind Speed 12 mph    
Max Gust Speed -    
Visibility 10 miles    
Events      
Averages and records for this station are not official NWS values.
T = Trace of Precipitation, MM = Missing Value Source: NWS Daily Summary

Daily Weather History Graph

Daily Weather History Graph

Search for Another Location

Airport or City:

Trip Planner

Search our weather history database for the weather conditions in past years. The results will help you decide how hot, cold, wet, or windy it might be!

Date:

Astronomy

Nov. 06, 2011 Rise Set
Actual Time 6:54 AM EST 5:11 PM EST
Civil Twilight 6:26 AM EST 5:39 PM EST
Nautical Twilight 5:53 AM EST 6:12 PM EST
Astronomical Twilight 5:22 AM EST 6:44 PM EST
Moon 2:55 PM EST (11/6) 2:59 AM EST (11/6)
Length of Visible Light 11h 13m
Length of Day
10h 16m
Waxing Gibbous, 85% of the Moon is Illuminated
Nov 6
Waxing Gibbous
Nov 10
Full
Nov 18
Last Quarter
Nov 25
New
Dec 2
First Quarter

Hourly Weather History & Observations

Time (EST) Temp. Windchill Dew Point Humidity Pressure Visibility Wind Dir Wind Speed Gust Speed Precip Events Conditions
12:53 AM 41.0 °F 36.4 °F 19.0 °F 41% 30.34 in 10.0 mi SSE 6.9 mph - N/A   Clear
1:53 AM 42.1 °F 37.1 °F 19.0 °F 40% 30.34 in 10.0 mi SSE 8.1 mph - N/A   Clear
1:53 AM 41.0 °F 35.2 °F 17.1 °F 38% 30.34 in 10.0 mi SSE 9.2 mph - N/A   Clear
2:53 AM 41.0 °F 37.1 °F 17.1 °F 38% 30.34 in 10.0 mi SE 5.8 mph - N/A   Clear
3:53 AM 41.0 °F 36.4 °F 16.0 °F 36% 30.34 in 10.0 mi SE 6.9 mph - N/A   Clear
4:53 AM 39.9 °F 37.8 °F 17.1 °F 40% 30.35 in 10.0 mi SSE 3.5 mph - N/A   Clear
5:53 AM 39.9 °F 37.8 °F 21.0 °F 47% 30.38 in 10.0 mi SSE 3.5 mph - N/A   Clear
6:53 AM 37.0 °F 33.3 °F 21.0 °F 52% 30.40 in 9.0 mi SE 4.6 mph - N/A   Clear
7:53 AM 35.1 °F 30.1 °F 24.1 °F 64% 30.43 in 10.0 mi SSE 5.8 mph - N/A   Clear
8:53 AM 42.1 °F 37.7 °F 23.0 °F 47% 30.44 in 10.0 mi SSE 6.9 mph - N/A   Clear
9:53 AM 48.0 °F - 19.9 °F 33% 30.43 in 10.0 mi South 10.4 mph - N/A   Clear
10:53 AM 50.0 °F - 19.0 °F 29% 30.43 in 10.0 mi South 11.5 mph - N/A   Clear
11:53 AM 55.0 °F - 24.1 °F 30% 30.40 in 10.0 mi South 8.1 mph - N/A   Clear
12:53 PM 55.9 °F - 23.0 °F 28% 30.36 in 10.0 mi SSW 6.9 mph - N/A   Clear
1:53 PM 57.9 °F - 25.0 °F 28% 30.34 in 10.0 mi South 11.5 mph - N/A   Clear
2:53 PM 57.2 °F - 26.6 °F 31% 30.30 in 10.0 mi South 8.1 mph - N/A   Clear
3:53 PM 57.9 °F - 27.0 °F 31% 30.32 in 10.0 mi SSE 5.8 mph - N/A   Clear
4:53 PM 57.0 °F - 25.0 °F 29% 30.30 in 10.0 mi South 4.6 mph - N/A   Clear
5:53 PM 55.9 °F - 24.1 °F 29% 30.30 in 10.0 mi SSW 3.5 mph - N/A   Clear
6:53 PM 53.1 °F - 25.0 °F 34% 30.32 in 10.0 mi SE 3.5 mph - N/A   Clear
7:53 PM 53.1 °F - 24.1 °F 32% 30.32 in 10.0 mi South 5.8 mph - N/A   Clear
8:53 PM 48.0 °F - 26.1 °F 42% 30.33 in 10.0 mi SSE 5.8 mph - N/A   Clear
9:53 PM 48.0 °F - 25.0 °F 41% 30.33 in 10.0 mi South 6.9 mph - N/A   Clear
10:53 PM 43.0 °F 38.8 °F 30.0 °F 60% 30.32 in 9.0 mi SSE 6.9 mph - N/A   Clear